www.pogodaiklimat.ru

Погода и климат >> Архив погоды >> Россия >> Коми >> Вендинга


ПОГОДА в Вендинге

  • Прогноз погоды в Вендинге
  • Монитор погоды в Вендинге

АРХИВ ПОГОДЫ в Вендинге

Время (UTC), дата Ветер
(напр.,м/с)
 
Видим.   Явления Облачность Т
(С)
Тd
(С)
f
(%)
Тe
(С)
Тes
(С)
Комфортность P
(гПа)
Po
(гПа)
Тmin
(С)
Tmax
(С)
R
(мм)
R24
(мм)
S
(см)
18 14.09 ЮВ 4 20 км {ливн. осадки} 10/9 420 м
[Cb cap Ac As]
+11.9 +11.0 94 +10 +10 990.9 981.5
00 15.09 ЮЗ 5
{11}
4000 м слаб. дождь 10/8 420 м
[Sc Ac As]
+8.0 +7.4 96 +4 +4 990.3 980.8
03 15.09 Ю 6
{12}
10 км слаб. дождь 10/6 300 м
[Sc Ac As]
+7.5 +5.6 88 +3 +3 990.9 981.4 +7.2 1
06 15.09 ЮЗ 6-11
{11}
10 км слаб. дождь 10/3 300 м
[Sc Ac As]
+7.9 +6.8 93 +4 +4 991.1 981.6 +7.1
09 15.09 ЮЗ 6-11
{12}
4000 м слаб. дождь 10/0
[Ac As]
+8.1 +6.8 91 +4 +4 991.3 981.8
12 15.09 ЮЗ 6-12
{13}
4000 м слаб. дождь 10/4 300 м
[Frnb As op]
+6.9 +5.6 91 +2 +2 991.9 982.4
15 15.09 ЮЗ 6-10
{12}
10 км слаб. дождь 10/0
[As op]
+6.5 +4.9 90 +2 +2 991.9 982.4 +8.1 8
18 15.09 ЮЗ 7-12
{13}
10 км слаб. дождь 10/0
[As op]
+6.1 +4.2 88 +1 +1 991.7 982.0
00 16.09 ЮЗ 3
{10}
20 км {дождь} 10/0
[Ac As]
+5.6 +4.0 89 +2 +2 991.0 981.3
03 16.09 ЮЗ 4 20 км 10/0
[Ac As Cs]
+4.6 +2.9 89 0 0 991.0 981.3 +4.6 2
06 16.09 Ю 3 20 км 10/10 330 м
[Sc]
+4.9 +3.7 92 +1 +1 990.7 981.0 +4.2
09 16.09 ЮВ 4 20 км 10/10 570 м
[Sc]
+6.9 +4.4 84 +3 +3 989.6 980.1
12 16.09 Ю 3 10 км слаб. дождь 10/8 570 м
[Sc Ac As]
+6.8 +5.7 93 +4 +4 988.9 979.5
15 16.09 ЮВ 2 10 км слаб. дождь 10/8 660 м
[Sc As op]
+6.7 +6.3 97 +4 +4 987.6 978.2 +7.6 1
18 16.09 ЮВ 1 10 км слаб. дождь 10/0
[Ac As]
+6.1 +5.4 95 +5 +5 986.7 977.1
00 17.09 СЗ 1 10 км слаб. морось {дождь} 10/10 210 м
[St]
+6.0 +5.6 97 +5 +5 985.8 976.2
03 17.09 С 1 4000 м дымка 10/10 180 м
[St]
+5.6 +5.1 97 +4 +4 986.1 976.5 +5.3 1
06 17.09 штиль 0 20 км {морось} 10/10 240 м
[St]
+6.4 +6.0 97 +5 +5 986.9 977.3
09 17.09 С 1 20 км {дождь} 9/8 360 м
[Cb cap Ac trans]
+8.5 +5.9 84 +8 +8 987.6 978.2
12 17.09 С 2 20 км {дождь} 10/4 300 м
[Cb cap Ac As]
+9.1 +5.6 79 +7 +8 988.6 979.2
15 17.09 С 1 20 км 10/6 930 м
[Sc Ac As]
+8.6 +5.9 83 +8 +8 989.6 980.1 +10.0 0.0
18 17.09 С 1 20 км 10/3 600 м
[Sc Ac As]
+6.8 +4.5 85 +6 +6 990.2 980.7
00 18.09 С 1 20 км 10/8 300 м
[Sc Ac As]
+5.5 +4.8 95 +4 +4 991.6 981.9
03 18.09 С 2 20 км 10/10 360 м
[Sc]
+6.3 +5.2 93 +4 +4 992.4 982.7 +5.1
06 18.09 СВ 2 20 км 10/8 600 м
[Sc Ac As]
+7.0 +4.5 84 +5 +5 993.9 984.4
09 18.09 СЗ 4 20 км в посл. час ливневой дождь 10/6 570 м
[Sc Ac As]
+7.1 +4.6 84 +4 +4 995.7 986.2
12 18.09 С 4 20 км {ливн. осадки} 10/5 660 м
[Sc Ac As]
+7.3 +1.3 66 +4 +4 997.6 988.1
15 18.09 С 2 20 км 3/0
[Ac cuf Cc]
+6.5 +0.7 66 +5 +5 998.7 989.0 +7.6 0.0
18 18.09 штиль 0 20 км местами туман поземный 3/0
[Ci fib]
+0.1 -0.2 98 -1 -1 1000.0 990.0
00 19.09 СЗ 1 20 км 9/0
[Ac trans]
-2.1 -2.4 98 -5 -5 1001.4 991.4
03 19.09 СЗ 2 2000 м дымка 10/0
[As op]
-1.6 -1.6 100 -6 -6 1001.7 991.7 -2.1
06 19.09 СЗ 2 10 км дымка 10/10 210 м
[St]
+1.0 -0.7 88 -3 -3 1002.3 992.3 -2.5
09 19.09 СЗ 2 10 км слаб. ливневой дождь 10/6 600 м
[Cb cap Ac As Ci fib]
+4.8 +1.8 81 +2 +3 1002.8 993.0
12 19.09 С 4 20 км {ливн. осадки} 10/3 600 м
[Cu med, cong Ac cuf Ci fib]
+5.6 -0.5 65 +2 +2 1003.5 993.7
15 19.09 СЗ 3 20 км 1/1 600 м
[Cu hum]
+4.8 -0.5 69 +2 +2 1004.6 994.8 +7.3 0.3
18 19.09 З 1 20 км ясно +0.1 -0.5 96 -2 -2 1005.8 995.8
00 20.09 штиль 0 20 км 8/0
[Ac As]
-1.2 -1.9 95 -3 -3 1007.1 997.1
03 20.09 З 1 20 км 10/0
[Ac und]
-0.1 -0.9 94 -2 -2 1007.2 997.2 -2.6
06 20.09 З 2 20 км 6/0
[Ac As Cc]
+3.4 +0.5 81 +1 +2 1006.8 997.0
09 20.09 ЮЗ 4 20 км в посл. час ливневой дождь 9/6 720 м
[Cb cap Ac As Cc]
+4.7 +0.5 74 +1 +1 1006.9 997.1
12 20.09 З 4 20 км {ливн. осадки} 9/4 600 м
[Cb cap Ac trans Cc]
+5.2 -1.0 64 +2 +2 1006.7 996.9
15 20.09 Ю 2 20 км 6/1 600 м
[Cb cap Ac lent Cc]
+2.3 +0.1 85 -1 -1 1006.4 996.6 +6.6 0.0
18 20.09 Ю 2 20 км 3/0
[Ac trans Ci sp]
-0.4 -1.0 96 -4 -4 1006.3 996.3
00 21.09 Ю 3 20 км 10/0
[Ac und]
+0.5 -0.1 96 -4 -4 1004.5 994.5
03 21.09 Ю 4 20 км 10/10 360 м
[Sc]
+1.1 0.0 92 -4 -4 1003.4 993.4 -1.1
06 21.09 Ю 4 20 км 10/10 480 м
[Sc]
+2.8 -0.5 79 -2 -2 1002.0 992.2
09 21.09 ЮЗ 4 20 км {ливн. осадки} 10/10 500 м
[Cb cap]
+3.2 +1.4 88 -2 -2 1001.6 991.8
12 21.09 ЮЗ 4 20 км {ливн. осадки, морось} 9/8 540 м
[Cb cap Cc]
+4.0 +0.9 80 -0 -0 1001.4 991.6

 

Местоположение метеостанции Вендинга (Коми, Россия): широта 63.45 долгота 47.92 высота над уровнем моря 80 м.

В архиве по умолчанию представлена погода в Вендинге за последнюю неделю. Архивные данные за месяц целиком и за предыдущие месяцы, начиная с января 2011 года, Вы можете получить, выбрав интересующий диапазон дат из раскрывающегося списка и нажав кнопку "Ввод!".


*Определитесь, кто Вы:
робот инопланетянин человек

Внимание! Время в таблицах - всемирное. Для получения местного времени необходимо прибавить поправку, которая равна 3 ч.

Смотрите также архив погоды в соседних городах и на ближайших метеорологических станциях:

Погода в Кослане (Коми, Россия) (50 км)
Погода в Суре (Архангельская область, Россия) (115 км)
Погода в Койнасе (Архангельская область, Россия) (145 км)
Погода в Яренске (Архангельская область, Россия) (155 км)
Погода в Весляне (Коми, Россия) (158 км)
Погода в Карпогорах (Архангельская область, Россия) (181 км)
Погода в Усть-Выми (Коми, Россия) (186 км)
Погода в Слободчиково (Архангельская область, Россия) (190 км)
Погода в Лешуконском (Архангельская область, Россия) (192 км)
Погода в Верхней Тойме (Архангельская область, Россия) (200 км)

Пояснения к столбцам:

Ветер - указаны скорость ветра в м/с - средняя за 10 мин, порывы в срок и между сроками (в фигурных скобках) и направление, откуда дует ветер: С - северный, СВ - северо-восточный, В - восточный, ЮВ - юго-восточный, Ю - южный, ЮЗ - юго-западный, З - западный, СЗ - северо-западный.
Видимость - горизонтальная дальность видимости в метрах или километрах. При видимости от 1 до 10 км при отсутствии осадков обычно наблюдается дымка, при ухудшении видимости до 1 км и менее - туман. В сухую погоду видимость может ухудшаться дымом, пылью или мглою.
Явления - указаны атмосферные явления, наблюдавшиеся в срок или в последний час перед сроком; фигурными скобками обозначены явления, наблюдавшиеся между сроками (за 1-3 часа до срока); квадратными скобками обозначены град или гололедные отложения с указанием их диаметра в мм.
Облачность - указаны через наклонную черту общая и нижняя облачность в баллах и высота нижней границы облаков в метрах; квадратными скобками обозначены формы облаков: Ci - перистые, Cs - перисто-слоистые, Cc - перисто-кучевые, Ac - высококучевые, As - высокослоистые, Sc - слоисто-кучевые, Ns - слоисто-дождевые, Cu - кучевые, Cb - кучево-дождевые. Подробнее классификацию облаков см. в Атласе облаков (PDF).
T - Температура воздуха - температура, измеренная на высоте 2 м над землей.
Td - Температура точки росы - температура, при понижении до которой содержащийся в воздухе водяной пар достигнет насыщения.
f - Относительная влажность воздуха - влажноcть воздуха, измеренная на высоте 2 м над землей.
Te - Эффективная температура - температура, которую ощущает одетый по сезону человек в тени. Характеристика душности погоды. При расчете учитывается влияние влажности воздуха и скорости ветра на теплоощущения человека.
Tes - Эффективная температура на солнце - температура, которую ощущает человек, с поправкой на солнечный нагрев. Характеристика знойности погоды. Зависит от высоты солнца над горизонтом, облачности и скорости ветра. Ночью, в пасмурную погоду, а также при ветре 12 м/с и более поправка равна нулю.
P - Атмосферное давление - приведенное к уровню моря атмосферное давление.
Po - Атмосферное давление - измеренное на уровне метеостанции атмосферное давление.
Tmin - Минимальная температура - минимум температуры воздуха на высоте 2 м над землей.
Tmax - Максимальная температура - максимум температуры воздуха на высоте 2 м над землей.
R - Количество осадков - Количество выпавших осадков за период времени, мм. При наведении курсора мыши на число - период времени, за который выпало указанное количество осадков.
R24 - Количество осадков - Количество выпавших осадков за 24 часа, мм.
S - Снежный покров - Высота снежного покрова, см. При наведении курсора мыши на число - состояние снежного покрова и степень покрытия местности в баллах.